CW3202 Weather Reports


time (UTC)temp
F
wind
direction
speed
knots
gust
knots
rain 1hr
in
rain 24hr
in
rain mn
in
humidity
%
barometer
mb
20260503230104 87 224 1.7 8.7 0.00 0.00 0.00 36 1008.0
20260503225604 87 161 4.3 8.7 0.00 0.00 0.00 35 1008.0
20260503224904 88 189 1.7 3.5 0.00 0.00 0.00 35 1008.0
20260503224404 88 64 2.6 4.3 0.00 0.00 0.00 29 1008.1
20260503223704 88 355 4.3 5.2 0.00 0.00 0.00 31 1008.2
20260503223204 88 206 4.3 6.1 0.00 0.00 0.00 35 1008.3
20260503222704 87 251 0.9 6.1 0.00 0.00 0.00 34 1008.5
20260503222204 87 288 6.1 6.1 0.00 0.00 0.00 35 1008.4
20260503221704 87 260 5.2 5.2 0.00 0.00 0.00 36 1008.5
20260503220904 87 325 0.0 2.6 0.00 0.00 0.00 31 1008.6
20260503220404 87 299 0.9 5.2 0.00 0.00 0.00 29 1008.7
20260503215804 87 43 5.2 5.2 0.00 0.00 0.00 33 1008.8
20260503215304 87 24 2.6 7.8 0.00 0.00 0.00 31 1008.8
20260503214804 87 18 4.3 7.8 0.00 0.00 0.00 34 1008.9
20260503214304 87 16 2.6 5.2 0.00 0.00 0.00 31 1008.8
20260503213804 87 319 2.6 9.6 0.00 0.00 0.00 32 1008.9
20260503213304 87 5 3.5 9.6 0.00 0.00 0.00 34 1008.9
20260503212804 87 32 9.6 9.6 0.00 0.00 0.00 36 1008.9
20260503212104 87 355 2.6 5.2 0.00 0.00 0.00 33 1009.1
20260503211604 87 53 5.2 5.2 0.00 0.00 0.00 29 1009.1
20260503211104 87 300 0.9 3.5 0.00 0.00 0.00 27 1009.1
20260503210604 86 300 0.9 7.8 0.00 0.00 0.00 29 1009.3
20260503210105 86 324 3.5 7.8 0.00 0.00 0.00 32 1009.3
20260503205604 86 225 1.7 4.3 0.00 0.00 0.00 34 1009.4
20260503205004 86 310 4.3 4.3 0.00 0.00 0.00 33 1009.5
20260503204504 85 244 2.6 5.2 0.00 0.00 0.00 37 1009.5
20260503204004 86 244 2.6 5.2 0.00 0.00 0.00 37 1009.6
20260503203504 86 355 5.2 5.2 0.00 0.00 0.00 37 1009.7
20260503203004 86 82 0.0 4.3 0.00 0.00 0.00 36 1009.6
20260503202504 85 355 1.7 4.3 0.00 0.00 0.00 35 1009.8
20260503202004 85 338 0.9 4.3 0.00 0.00 0.00 32 1009.9
20260503201404 85 5 3.5 4.3 0.00 0.00 0.00 41 1009.9
20260503200804 85 336 2.6 6.1 0.00 0.00 0.00 40 1010.0
20260503200104 85 300 6.1 7.0 0.00 0.00 0.00 34 1010.2
20260503195404 85 32 2.6 7.0 0.00 0.00 0.00 38 1010.2
20260503194904 85 244 1.7 1.7 0.00 0.00 0.00 40 1010.2
20260503194404 84 32 1.7 4.3 0.00 0.00 0.00 45 1010.3
20260503193904 83 32 1.7 4.3 0.00 0.00 0.00 46 1010.3
20260503193204 83 246 2.6 8.7 0.00 0.00 0.00 45 1010.5
20260503192704 83 272 3.5 8.7 0.00 0.00 0.00 46 1010.5
20260503192204 84 330 1.7 7.0 0.00 0.00 0.00 43 1010.5
20260503191703 83 285 1.7 6.1 0.00 0.00 0.00 41 1010.5
20260503191105 83 278 1.7 6.1 0.00 0.00 0.00 39 1010.6
20260503190504 83 225 1.7 3.5 0.00 0.00 0.00 43 1010.7
20260503190004 82 304 1.7 2.6 0.00 0.00 0.00 39 1010.8
20260503185104 82 339 1.7 6.1 0.00 0.00 0.00 43 1010.7
20260503184504 82 360 5.2 6.1 0.00 0.00 0.00 44 1010.8
20260503184004 82 355 0.9 2.6 0.00 0.00 0.00 42 1011.0
20260503183504 81 217 0.9 2.6 0.00 0.00 0.00 50 1011.0
20260503183004 81 217 2.6 2.6 0.00 0.00 0.00 49 1011.0
20260503182505 80 221 1.7 2.6 0.00 0.00 0.00 54 1011.1
20260503182005 80 218 2.6 3.5 0.00 0.00 0.00 47 1011.1
20260503181505 80 215 2.6 3.5 0.00 0.00 0.00 51 1011.1
20260503181004 80 172 0.9 1.7 0.00 0.00 0.00 55 1011.2
20260503180504 80 170 0.0 3.5 0.00 0.00 0.00 53 1011.2
20260503180004 80 170 0.0 3.5 0.00 0.00 0.00 55 1011.2
20260503175504 80 158 0.0 1.7 0.00 0.00 0.00 54 1011.3
20260503175004 80 160 1.7 1.7 0.00 0.00 0.00 55 1011.3
20260503174304 78 153 0.0 1.7 0.00 0.00 0.00 64 1011.4
20260503173804 77 153 0.0 1.7 0.00 0.00 0.00 61 1011.4
20260503173304 76 153 1.7 1.7 0.00 0.00 0.00 62 1011.5
20260503172804 75 153 0.9 1.7 0.00 0.00 0.00 64 1011.6
20260503172305 74 154 0.0 0.9 0.00 0.00 0.00 62 1011.6
20260503171804 73 154 0.9 0.9 0.00 0.00 0.00 65 1011.7
20260503171304 72 155 0.0 0.9 0.00 0.00 0.00 69 1011.8
20260503170604 71 153 0.9 1.7 0.00 0.00 0.00 75 1011.8
20260503170104 70 153 0.9 1.7 0.00 0.00 0.00 75 1011.8
20260503151005 52 217 0.0 0.9 0.00 0.00 0.00 100 1012.7
20260503150504 52 217 0.0 0.9 0.00 0.00 0.00 100 1012.7
20260503140104 46 244 0.9 2.6 0.00 0.00 0.00 99 1012.6
20260503131104 46 360 0.0 0.0 0.00 0.00 0.00 99 1012.3
20260503130604 46 360 0.0 0.0 0.00 0.00 0.00 99 1012.5
20260503130104 46 360 0.0 0.0 0.00 0.00 0.00 99 1012.4
20260503120204 46 360 0.0 0.9 0.00 0.00 0.00 98 1012.3
20260503110604 45 360 0.0 0.0 0.00 0.00 0.00 98 1012.6
20260503110104 45 360 0.0 0.9 0.00 0.00 0.00 98 1012.6
20260503090504 48 310 0.9 0.9 0.00 0.00 0.00 97 1012.8
20260503081304 50 311 0.0 0.9 0.00 0.00 0.00 97 1013.0
20260503080804 50 311 0.0 1.7 0.00 0.00 0.00 98 1012.9
20260503080304 50 311 0.0 1.7 0.00 0.00 0.00 97 1012.9
20260503072804 51 310 0.9 1.7 0.00 0.00 0.00 96 1012.8
20260503072305 51 310 0.9 0.9 0.00 0.00 0.00 97 1012.9
20260503071604 51 310 0.0 0.9 0.00 0.00 0.00 96 1012.9
20260503070304 52 310 0.9 0.9 0.00 0.00 0.00 96 1013.1
20260503060104 54 5 0.9 2.6 0.00 0.00 0.00 95 1013.1
20260503054904 54 360 1.7 1.7 0.00 0.00 0.00 95 1012.9
20260503054404 54 264 1.7 2.6 0.00 0.00 0.00 95 1012.8
20260503053904 54 360 1.7 2.6 0.00 0.00 0.00 94 1012.8
20260503053404 54 360 1.7 1.7 0.00 0.00 0.00 93 1013.0
20260503052904 55 202 0.0 0.9 0.00 0.00 0.00 93 1012.8
20260503052404 55 202 0.0 1.7 0.00 0.00 0.00 92 1012.8
20260503051904 56 360 0.0 1.7 0.00 0.00 0.00 93 1012.7
20260503051404 56 360 1.7 1.7 0.00 0.00 0.00 94 1012.8
20260503050904 56 360 0.0 0.9 0.00 0.00 0.00 94 1012.8
20260503050404 56 360 0.9 1.7 0.00 0.00 0.00 94 1012.8
20260503045904 56 360 0.9 1.7 0.00 0.00 0.00 92 1012.9
20260503045404 56 360 1.7 1.7 0.00 0.00 0.00 90 1012.9
20260503044804 58 360 0.9 0.9 0.00 0.00 0.00 91 1013.0
20260503044304 58 360 0.0 1.7 0.00 0.00 0.00 91 1012.9
20260503043804 58 360 0.9 1.7 0.00 0.00 0.00 91 1012.8
20260503043304 58 203 0.0 0.0 0.00 0.00 0.00 89 1012.8
20260503042804 59 202 0.0 0.9 0.00 0.00 0.00 89 1012.7
20260503042305 59 360 0.0 1.7 0.00 0.00 0.00 89 1012.6
20260503041804 60 202 0.0 1.7 0.00 0.00 0.00 88 1012.6
20260503041004 60 202 1.7 1.7 0.00 0.00 0.00 87 1012.5
20260503040304 61 203 0.9 0.9 0.00 0.00 0.00 88 1012.4
20260503035804 61 203 0.0 0.9 0.00 0.00 0.00 87 1012.4
20260503035305 62 203 0.0 1.7 0.00 0.00 0.00 86 1012.2
20260503034804 62 203 0.0 1.7 0.00 0.00 0.00 86 1012.1
20260503034204 62 200 0.9 1.7 0.00 0.00 0.00 84 1011.9
20260503033704 63 360 0.9 1.7 0.00 0.00 0.00 82 1011.9
20260503033204 64 200 0.0 1.7 0.00 0.00 0.00 82 1011.6
20260503032704 65 201 0.9 1.7 0.00 0.00 0.00 80 1011.5
20260503032004 67 200 0.0 1.7 0.00 0.00 0.00 78 1011.5
20260503031504 68 360 0.0 1.7 0.00 0.00 0.00 77 1011.3
20260503031004 69 200 0.0 1.7 0.00 0.00 0.00 75 1011.2
20260503030504 70 200 0.0 1.7 0.00 0.00 0.00 73 1011.2
20260503030004 72 200 0.0 1.7 0.00 0.00 0.00 71 1011.1
20260503025504 72 200 0.9 1.7 0.00 0.00 0.00 70 1011.0
20260503025005 72 200 0.0 1.7 0.00 0.00 0.00 71 1011.0
20260503024505 73 200 1.7 1.7 0.00 0.00 0.00 70 1010.9
20260503023604 74 200 0.9 1.7 0.00 0.00 0.00 68 1011.0
20260503023104 76 200 0.9 1.7 0.00 0.00 0.00 67 1011.0
20260503022604 77 202 0.9 1.7 0.00 0.00 0.00 64 1011.0
20260503021804 76 202 0.0 1.7 0.00 0.00 0.00 66 1011.0
20260503021104 76 202 0.0 1.7 0.00 0.00 0.00 66 1011.0
20260503020404 76 202 0.9 1.7 0.00 0.00 0.00 59 1011.0
20260503015904 76 202 0.0 1.7 0.00 0.00 0.00 59 1011.1
20260503015405 76 201 1.7 1.7 0.00 0.00 0.00 60 1011.2
20260503014704 75 201 1.7 3.5 0.00 0.00 0.00 64 1011.1
20260503014204 76 200 3.5 3.5 0.00 0.00 0.00 62 1011.2
20260503013704 76 197 2.6 4.3 0.00 0.00 0.00 61 1011.2
20260503013204 76 196 2.6 4.3 0.00 0.00 0.00 63 1011.3
20260503012704 76 212 3.5 3.5 0.00 0.00 0.00 62 1011.3
20260503012204 76 193 1.7 3.5 0.00 0.00 0.00 60 1011.2
20260503011704 76 191 3.5 3.5 0.00 0.00 0.00 59 1011.3
20260503011204 77 195 1.7 3.5 0.00 0.00 0.00 59 1011.2
20260503010704 77 175 0.0 1.7 0.00 0.00 0.00 59 1011.1
20260503010204 77 258 0.0 0.9 0.00 0.00 0.00 58 1011.1
20260503005704 76 286 0.0 0.9 0.00 0.00 0.00 57 1011.1
20260503005204 76 286 0.0 0.9 0.00 0.00 0.00 57 1011.1
20260503004704 76 286 0.0 0.9 0.00 0.00 0.00 57 1011.2
20260503004204 76 286 0.0 2.6 0.00 0.00 0.00 59 1011.2
20260503003704 75 286 0.0 2.6 0.00 0.00 0.00 57 1011.2
20260503003204 75 285 2.6 3.5 0.00 0.00 0.00 57 1011.2
20260503002704 75 304 0.9 3.5 0.00 0.00 0.00 58 1011.2
20260503002204 75 239 1.7 3.5 0.00 0.00 0.00 57 1011.4
20260503001704 75 245 3.5 5.2 0.00 0.00 0.00 59 1011.5
20260503001109 75 309 0.9 5.2 0.00 0.00 0.00 59 1011.4
20260503000505 75 245 2.6 4.3 0.00 0.00 0.00 59 1011.4
20260503000004 75 244 0.9 6.1 0.00 0.00 0.00 59 1011.5
20260502235504 75 242 4.3 6.1 0.00 0.00 0.00 58 1011.5
20260502235004 75 204 5.2 5.2 0.00 0.00 0.00 59 1011.5
20260502234504 75 236 1.7 5.2 0.00 0.00 0.00 61 1011.5
20260502234004 74 225 3.5 4.3 0.00 0.00 0.00 61 1011.6
20260502233504 74 236 3.5 5.2 0.00 0.00 0.00 61 1011.6
20260502233004 74 232 3.5 5.2 0.00 0.00 0.00 59 1011.8
20260502232504 74 249 1.7 5.2 0.00 0.00 0.00 62 1011.8
20260502232004 74 292 1.7 6.1 0.00 0.00 0.00 62 1012.0
20260502231405 73 221 4.3 6.1 0.00 0.00 0.00 62 1012.1
20260502230904 73 273 5.2 5.2 0.00 0.00 0.00 65 1012.2
20260502230404 72 221 1.7 3.5 0.00 0.00 0.00 71 1012.3